Weather History for Waukesha, WI

Change the Weather History Date:

Friday, January 24, 2014

  Actual Average Record
Temperature  
Mean Temperature 8 °F -  
Max Temperature 26 °F 30 °F 58 °F (1967)
Min Temperature -9 °F 15 °F -11 °F (1963)
Degree Days  
Heating Degree Days 56    
Moisture  
Dew Point 2 °F    
Average Humidity 76    
Maximum Humidity 93    
Minimum Humidity 52    
Precipitation  
Precipitation 0.00 in - - ()
Sea Level Pressure  
Sea Level Pressure 29.86 in    
Wind  
Wind Speed 13 mph (SW)    
Max Wind Speed 29 mph    
Max Gust Speed 37 mph    
Visibility 7 miles    
Events Snow    
Averages and records for this station are not official NWS values.
T = Trace of Precipitation, MM = Missing Value Source: NWS Daily Summary

Daily Weather History Graph

Daily Weather History Graph

Search for Another Location

Airport:

Trip Planner

Search our weather history database for the weather conditions in past years. The results will help you decide how hot, cold, wet, or windy it might be!

Date:

Astronomy

Jan. 24, 2014 Rise Set
Actual Time 7:15 AM CST 4:55 PM CST
Civil Twilight 6:44 AM CST 5:25 PM CST
Nautical Twilight 6:10 AM CST 6:00 PM CST
Astronomical Twilight 5:36 AM CST 6:33 PM CST
Moon 12:40 AM CST (1/24) 11:15 AM CST (1/24)
Length of Visible Light 10h 40m
Length of Day
9h 39m
Last Quarter, 44% of the Moon is Illuminated
Jan 24
Last Quarter
Jan 30
New
Feb 6
First Quarter
Feb 14
Full
Feb 22
Last Quarter

Hourly Weather History & Observations

Time (CST) Temp. Windchill Dew Point Humidity Pressure Visibility Wind Dir Wind Speed Gust Speed Precip Events Conditions
12:15 AM -7.6 °F -24.6 °F -14.8 °F 71% 30.42 in 10.0 mi WSW 9.2 mph - N/A   Clear
12:35 AM -7.6 °F -24.6 °F -16.6 °F 65% 30.40 in 10.0 mi WSW 9.2 mph - N/A   Clear
12:55 AM -9.4 °F -27.9 °F -16.6 °F 71% 30.39 in 10.0 mi WSW 10.4 mph - N/A   Clear
1:15 AM -9.4 °F -27.9 °F -14.8 °F 77% 30.38 in 10.0 mi WSW 10.4 mph - N/A   Clear
1:35 AM -9.4 °F -27.9 °F -14.8 °F 77% 30.37 in 10.0 mi WSW 10.4 mph - N/A   Clear
1:55 AM -9.4 °F -26.8 °F -14.8 °F 77% 30.37 in 10.0 mi WSW 9.2 mph 16.1 mph N/A   Clear
2:15 AM -9.4 °F -27.9 °F -14.8 °F 77% 30.36 in 10.0 mi SW 10.4 mph - N/A   Clear
2:35 AM -9.4 °F -25.6 °F -14.8 °F 77% 30.35 in 10.0 mi SW 8.1 mph - N/A   Clear
2:55 AM -9.4 °F -26.8 °F -14.8 °F 77% 30.33 in 10.0 mi SW 9.2 mph - N/A   Clear
3:15 AM -7.6 °F -24.6 °F -14.8 °F 71% 30.31 in 10.0 mi SW 9.2 mph - N/A   Clear
3:35 AM -7.6 °F -22.1 °F -14.8 °F 71% 30.30 in 10.0 mi SW 6.9 mph - N/A   Clear
3:55 AM -7.6 °F -23.4 °F -13.0 °F 77% 30.29 in 10.0 mi SSW 8.1 mph - N/A   Clear
4:15 AM -5.8 °F -23.4 °F -13.0 °F 71% 30.27 in 10.0 mi SSW 10.4 mph - N/A   Clear
4:35 AM -5.8 °F -25.2 °F -9.4 °F 84% 30.25 in 10.0 mi SSW 12.7 mph - N/A   Clear
5:45 AM -0.4 °F -18.4 °F -7.6 °F 72% 30.14 in 10.0 mi SSW 12.7 mph 24.2 mph N/A   Clear
6:45 AM -0.4 °F -18.4 °F -7.6 °F 72% 30.11 in 10.0 mi SSW 12.7 mph 24.2 mph N/A   Clear
7:45 AM 3.2 °F -17.1 °F -7.6 °F 61% 30.03 in 10.0 mi SSW 18.4 mph 29.9 mph N/A   Overcast
8:45 AM 6.8 °F -16.2 °F -7.6 °F 52% 29.94 in 10.0 mi SSW 28.8 mph 36.8 mph N/A   Overcast
9:45 AM 8.6 °F -11.9 °F -5.8 °F 52% 29.90 in 10.0 mi SSW 23.0 mph 34.5 mph N/A   Mostly Cloudy
10:45 AM 8.6 °F -9.5 °F -2.2 °F 62% 29.88 in 10.0 mi SSW 17.3 mph 28.8 mph N/A   Mostly Cloudy
11:45 AM 12.2 °F -7.1 °F -0.4 °F 57% 29.82 in 7.0 mi SW 23.0 mph 36.8 mph N/A   Overcast
12:45 PM 12.2 °F -6.3 °F 1.4 °F 62% 29.77 in 10.0 mi SW 20.7 mph 28.8 mph N/A   Overcast
1:45 PM 14.0 °F -3.0 °F 3.2 °F 62% 29.72 in 10.0 mi SW 18.4 mph 27.6 mph N/A   Overcast
2:45 PM 15.8 °F -1.5 °F 6.8 °F 68% 29.66 in 10.0 mi SW 20.7 mph 26.5 mph N/A   Overcast
3:45 PM 17.6 °F 1.3 °F 8.6 °F 68% 29.63 in 10.0 mi SW 19.6 mph 24.2 mph N/A   Overcast
4:45 PM 17.6 °F 0.9 °F 8.6 °F 68% 29.61 in 10.0 mi SW 20.7 mph 26.5 mph N/A   Overcast
5:45 PM 19.4 °F 5.5 °F 10.4 °F 68% 29.58 in 10.0 mi SW 15.0 mph 20.7 mph N/A   Overcast
7:45 PM 23.0 °F 10.1 °F 15.8 °F 74% 29.48 in 4.0 mi SSW 15.0 mph - N/A Snow Light Snow
8:15 PM 23.0 °F 10.1 °F 19.4 °F 86% 29.47 in 2.5 mi SW 15.0 mph 24.2 mph N/A Snow Light Snow
8:35 PM 23.0 °F 8.7 °F 19.4 °F 86% 29.46 in 0.8 mi SW 18.4 mph 26.5 mph N/A Snow Light Snow
8:45 PM 23.0 °F 8.7 °F 19.4 °F 86% 29.45 in 1.5 mi WSW 18.4 mph - N/A Snow Light Snow
8:55 PM 23.0 °F 9.6 °F 21.2 °F 93% 29.44 in 1.0 mi SW 16.1 mph 25.3 mph N/A Snow Light Snow
9:15 PM 23.0 °F 9.2 °F 21.2 °F 93% 29.43 in 1.5 mi SW 17.3 mph 24.2 mph N/A Snow Light Snow
9:35 PM 23.0 °F 11.1 °F 21.2 °F 93% 29.42 in 2.0 mi SW 12.7 mph 23.0 mph N/A Snow Light Snow
9:55 PM 24.8 °F 11.9 °F 21.2 °F 86% 29.41 in 1.0 mi SW 16.1 mph 24.2 mph N/A Snow Light Snow
10:15 PM 24.8 °F 11.1 °F 23.0 °F 93% 29.39 in 3.0 mi SW 18.4 mph 26.5 mph N/A Snow Light Snow
10:35 PM 26.6 °F 14.3 °F 23.0 °F 86% 29.39 in 3.0 mi SW 16.1 mph 23.0 mph N/A Snow Light Snow
10:55 PM 26.6 °F 14.3 °F 23.0 °F 86% 29.38 in 3.0 mi SW 16.1 mph 23.0 mph N/A Snow Light Snow
11:15 PM 26.6 °F 14.7 °F 23.0 °F 86% 29.37 in 5.0 mi WSW 15.0 mph 25.3 mph N/A Snow Light Snow
11:35 PM 26.6 °F 14.3 °F 24.8 °F 93% 29.36 in 1.5 mi WSW 16.1 mph 21.9 mph N/A Snow Light Snow
11:55 PM 26.6 °F 14.7 °F 24.8 °F 93% 29.36 in 7.0 mi WSW 15.0 mph 21.9 mph N/A Snow Light Snow